Time,TemperatureF,DewpointF,PressureIn,WindDirection,WindDirectionDegrees,WindSpeedMPH,WindSpeedGustMPH,Humidity,HourlyPrecipIn,Conditions,Clouds,dailyrainin,SoftwareType,DateUTC
2013-05-20 00:04:00,70.4,20.0,29.62,NNE,16,0.0,2.0,15,0.00,,,0.00,weatherlink.com 1.10,2013-05-20 06:04:00,
2013-05-20 00:20:00,69.6,20.0,29.63,NNE,29,1.0,1.0,15,0.00,,,0.00,weatherlink.com 1.10,2013-05-20 06:20:00,
2013-05-20 00:35:00,69.6,23.0,29.63,NW,313,1.0,5.0,17,0.00,,,0.00,weatherlink.com 1.10,2013-05-20 06:35:00,
2013-05-20 00:50:00,69.5,24.0,29.64,NW,319,2.0,5.0,18,0.00,,,0.00,weatherlink.com 1.10,2013-05-20 06:50:00,
2013-05-20 01:05:00,69.2,25.0,29.64,WNW,298,5.0,5.0,19,0.00,,,0.00,weatherlink.com 1.10,2013-05-20 07:05:00,
2013-05-20 01:20:00,69.2,25.0,29.64,WNW,298,5.0,7.0,19,0.00,,,0.00,weatherlink.com 1.10,2013-05-20 07:20:00,
2013-05-20 01:35:00,69.2,25.0,29.64,NW,326,2.0,8.0,19,0.00,,,0.00,weatherlink.com 1.10,2013-05-20 07:35:00,
2013-05-20 01:50:00,68.6,25.0,29.64,West,278,0.0,6.0,19,0.00,,,0.00,weatherlink.com 1.10,2013-05-20 07:50:00,
2013-05-20 02:05:00,67.2,26.0,29.64,North,5,2.0,2.0,21,0.00,,,0.00,weatherlink.com 1.10,2013-05-20 08:05:00,
2013-05-20 02:20:00,66.5,25.0,29.64,NNW,343,3.0,4.0,21,0.00,,,0.00,weatherlink.com 1.10,2013-05-20 08:20:00,
2013-05-20 02:35:00,66.1,25.0,29.64,NNW,329,0.0,3.0,21,0.00,,,0.00,weatherlink.com 1.10,2013-05-20 08:35:00,
2013-05-20 02:50:00,66.3,25.0,29.64,NNW,343,3.0,6.0,21,0.00,,,0.00,weatherlink.com 1.10,2013-05-20 08:50:00,
2013-05-20 03:05:00,65.5,26.0,29.64,North,5,2.0,4.0,22,0.00,,,0.00,weatherlink.com 1.10,2013-05-20 09:05:00,
2013-05-20 03:20:00,65.1,25.0,29.64,NNW,345,2.0,4.0,22,0.00,,,0.00,weatherlink.com 1.10,2013-05-20 09:20:00,
2013-05-20 03:35:00,65.0,25.0,29.64,NNE,20,1.0,4.0,22,0.00,,,0.00,weatherlink.com 1.10,2013-05-20 09:35:00,
2013-05-20 03:50:00,64.9,25.0,29.65,NNE,18,0.0,4.0,22,0.00,,,0.00,weatherlink.com 1.10,2013-05-20 09:50:00,
2013-05-20 04:05:00,64.6,26.0,29.65,North,1,2.0,5.0,23,0.00,,,0.00,weatherlink.com 1.10,2013-05-20 10:05:00,
2013-05-20 04:20:00,63.9,26.0,29.66,North,6,0.0,3.0,24,0.00,,,0.00,weatherlink.com 1.10,2013-05-20 10:20:00,
2013-05-20 04:35:00,63.8,26.0,29.66,NNE,18,4.0,5.0,24,0.00,,,0.00,weatherlink.com 1.10,2013-05-20 10:35:00,
2013-05-20 04:50:00,64.0,26.0,29.66,North,356,7.0,7.0,24,0.00,,,0.00,weatherlink.com 1.10,2013-05-20 10:50:00,
2013-05-20 05:05:00,63.7,26.0,29.66,NNW,334,3.0,6.0,24,0.00,,,0.00,weatherlink.com 1.10,2013-05-20 11:05:00,
2013-05-20 05:20:00,63.0,27.0,29.66,NNW,341,0.0,3.0,25,0.00,,,0.00,weatherlink.com 1.10,2013-05-20 11:20:00,
2013-05-20 05:35:00,63.0,27.0,29.66,NNW,329,4.0,6.0,25,0.00,,,0.00,weatherlink.com 1.10,2013-05-20 11:35:00,
2013-05-20 05:50:00,62.6,26.0,29.66,NNE,33,0.0,5.0,25,0.00,,,0.00,weatherlink.com 1.10,2013-05-20 11:50:00,
2013-05-20 06:05:00,62.1,28.0,29.67,NNW,347,1.0,3.0,27,0.00,,,0.00,weatherlink.com 1.10,2013-05-20 12:05:00,
2013-05-20 06:20:00,62.0,27.0,29.68,NW,326,2.0,3.0,27,0.00,,,0.00,weatherlink.com 1.10,2013-05-20 12:20:00,
2013-05-20 06:35:00,63.0,28.0,29.68,NNW,347,3.0,7.0,27,0.00,,,0.00,weatherlink.com 1.10,2013-05-20 12:35:00,
2013-05-20 06:50:00,63.1,28.0,29.69,North,360,3.0,5.0,27,0.00,,,0.00,weatherlink.com 1.10,2013-05-20 12:50:00,
2013-05-20 07:05:00,63.3,29.0,29.69,North,354,3.0,5.0,27,0.00,,,0.00,weatherlink.com 1.10,2013-05-20 13:05:00,
2013-05-20 07:20:00,64.2,28.0,29.69,NNE,23,3.0,4.0,26,0.00,,,0.00,weatherlink.com 1.10,2013-05-20 13:20:00,
2013-05-20 07:35:00,65.8,30.0,29.69,NNW,341,1.0,3.0,26,0.00,,,0.00,weatherlink.com 1.10,2013-05-20 13:35:00,
2013-05-20 07:50:00,66.9,29.0,29.70,North,356,2.0,3.0,24,0.00,,,0.00,weatherlink.com 1.10,2013-05-20 13:50:00,
2013-05-20 08:05:00,68.3,31.0,29.70,WNW,300,0.0,2.0,25,0.00,,,0.00,weatherlink.com 1.10,2013-05-20 14:05:00,
2013-05-20 08:21:00,69.3,31.0,29.71,West,273,2.0,4.0,24,0.00,,,0.00,weatherlink.com 1.10,2013-05-20 14:21:00,
2013-05-20 08:36:00,70.1,31.0,29.71,WNW,291,2.0,3.0,23,0.00,,,0.00,weatherlink.com 1.10,2013-05-20 14:36:00,
2013-05-20 08:51:00,70.3,31.0,29.71,WNW,293,3.0,4.0,23,0.00,,,0.00,weatherlink.com 1.10,2013-05-20 14:51:00,
2013-05-20 09:06:00,71.0,31.0,29.71,WNW,283,3.0,6.0,23,0.00,,,0.00,weatherlink.com 1.10,2013-05-20 15:06:00,
2013-05-20 09:21:00,71.2,31.0,29.71,WNW,299,3.0,7.0,23,0.00,,,0.00,weatherlink.com 1.10,2013-05-20 15:21:00,
2013-05-20 09:36:00,71.6,32.0,29.71,WNW,297,4.0,6.0,23,0.00,,,0.00,weatherlink.com 1.10,2013-05-20 15:36:00,
2013-05-20 10:06:00,72.7,30.0,29.71,NW,316,3.0,6.0,21,0.00,,,0.00,weatherlink.com 1.10,2013-05-20 16:06:00,
2013-05-20 10:21:00,73.4,31.0,29.70,WNW,288,7.0,11.0,21,0.00,,,0.00,weatherlink.com 1.10,2013-05-20 16:21:00,
2013-05-20 10:36:00,74.2,32.0,29.70,WNW,284,5.0,9.0,21,0.00,,,0.00,weatherlink.com 1.10,2013-05-20 16:36:00,
2013-05-20 10:51:00,74.5,31.0,29.70,WSW,240,4.0,9.0,20,0.00,,,0.00,weatherlink.com 1.10,2013-05-20 16:51:00,
2013-05-20 11:06:00,75.3,30.0,29.70,SW,236,4.0,7.0,19,0.00,,,0.00,weatherlink.com 1.10,2013-05-20 17:06:00,
2013-05-20 11:21:00,76.2,30.0,29.69,WSW,243,3.0,6.0,18,0.00,,,0.00,weatherlink.com 1.10,2013-05-20 17:21:00,
2013-05-20 11:36:00,77.6,28.0,29.68,WSW,246,10.0,11.0,16,0.00,,,0.00,weatherlink.com 1.10,2013-05-20 17:36:00,
2013-05-20 11:51:00,78.4,29.0,29.68,WNW,290,8.0,14.0,16,0.00,,,0.00,weatherlink.com 1.10,2013-05-20 17:51:00,
2013-05-20 12:06:00,79.1,31.0,29.67,NW,313,5.0,16.0,17,0.00,,,0.00,weatherlink.com 1.10,2013-05-20 18:06:00,
2013-05-20 12:21:00,79.4,26.0,29.67,WSW,249,12.0,14.0,14,0.00,,,0.00,weatherlink.com 1.10,2013-05-20 18:21:00,
2013-05-20 12:36:00,79.9,30.0,29.66,West,274,8.0,16.0,16,0.00,,,0.00,weatherlink.com 1.10,2013-05-20 18:36:00,
2013-05-20 12:51:00,80.9,27.0,29.65,WNW,290,6.0,13.0,14,0.00,,,0.00,weatherlink.com 1.10,2013-05-20 18:51:00,
2013-05-20 13:06:00,80.6,25.0,29.65,West,262,5.0,22.0,13,0.00,,,0.00,weatherlink.com 1.10,2013-05-20 19:06:00,
2013-05-20 13:21:00,80.8,27.0,29.64,WNW,290,4.0,14.0,14,0.00,,,0.00,weatherlink.com 1.10,2013-05-20 19:21:00,
2013-05-20 13:36:00,81.5,28.0,29.64,SSW,207,4.0,16.0,14,0.00,,,0.00,weatherlink.com 1.10,2013-05-20 19:36:00,
2013-05-20 13:51:00,81.4,26.0,29.64,WSW,242,12.0,22.0,13,0.00,,,0.00,weatherlink.com 1.10,2013-05-20 19:51:00,
2013-05-20 14:06:00,81.9,26.0,29.63,West,279,5.0,17.0,13,0.00,,,0.00,weatherlink.com 1.10,2013-05-20 20:06:00,
2013-05-20 14:21:00,83.2,23.0,29.62,WSW,248,13.0,22.0,11,0.00,,,0.00,weatherlink.com 1.10,2013-05-20 20:21:00,
2013-05-20 14:36:00,83.7,24.0,29.61,West,262,9.0,19.0,11,0.00,,,0.00,weatherlink.com 1.10,2013-05-20 20:36:00,
2013-05-20 14:51:00,83.4,24.0,29.61,West,264,11.0,19.0,11,0.00,,,0.00,weatherlink.com 1.10,2013-05-20 20:51:00,
2013-05-20 15:06:00,83.9,22.0,29.59,NW,321,4.0,24.0,10,0.00,,,0.00,weatherlink.com 1.10,2013-05-20 21:06:00,
2013-05-20 15:21:00,84.9,22.0,29.59,WNW,302,7.0,17.0,10,0.00,,,0.00,weatherlink.com 1.10,2013-05-20 21:21:00,
2013-05-20 15:36:00,84.5,22.0,29.58,NW,309,3.0,26.0,10,0.00,,,0.00,weatherlink.com 1.10,2013-05-20 21:36:00,
2013-05-20 15:51:00,85.4,23.0,29.57,WNW,290,7.0,21.0,10,0.00,,,0.00,weatherlink.com 1.10,2013-05-20 21:51:00,
2013-05-20 16:07:00,85.6,18.0,29.56,WSW,249,12.0,17.0,8,0.00,,,0.00,weatherlink.com 1.10,2013-05-20 22:07:00,
2013-05-20 16:21:00,85.2,23.0,29.55,WNW,291,8.0,19.0,10,0.00,,,0.00,weatherlink.com 1.10,2013-05-20 22:21:00,
2013-05-20 16:37:00,85.2,23.0,29.54,WNW,293,9.0,22.0,10,0.00,,,0.00,weatherlink.com 1.10,2013-05-20 22:37:00,
2013-05-20 16:52:00,86.2,21.0,29.54,West,269,6.0,17.0,9,0.00,,,0.00,weatherlink.com 1.10,2013-05-20 22:52:00,
2013-05-20 17:07:00,86.2,18.0,29.54,WSW,255,7.0,17.0,8,0.00,,,0.00,weatherlink.com 1.10,2013-05-20 23:07:00,
2013-05-20 17:22:00,85.8,21.0,29.53,West,262,6.0,13.0,9,0.00,,,0.00,weatherlink.com 1.10,2013-05-20 23:22:00,
2013-05-20 17:37:00,85.8,21.0,29.53,WNW,302,7.0,18.0,9,0.00,,,0.00,weatherlink.com 1.10,2013-05-20 23:37:00,
2013-05-20 17:52:00,86.0,18.0,29.52,West,275,9.0,16.0,8,0.00,,,0.00,weatherlink.com 1.10,2013-05-20 23:52:00,
2013-05-20 18:07:00,86.1,15.0,29.52,West,260,12.0,22.0,7,0.00,,,0.00,weatherlink.com 1.10,2013-05-21 00:07:00,
2013-05-20 18:22:00,86.1,18.0,29.51,NW,314,5.0,16.0,8,0.00,,,0.00,weatherlink.com 1.10,2013-05-21 00:22:00,
2013-05-20 18:37:00,85.8,11.0,29.52,WSW,255,7.0,18.0,6,0.00,,,0.00,weatherlink.com 1.10,2013-05-21 00:37:00,
2013-05-20 18:52:00,85.0,14.0,29.52,WNW,300,11.0,18.0,7,0.00,,,0.00,weatherlink.com 1.10,2013-05-21 00:52:00,
2013-05-20 19:07:00,84.5,17.0,29.52,WNW,287,3.0,16.0,8,0.00,,,0.00,weatherlink.com 1.10,2013-05-21 01:07:00,
2013-05-20 19:22:00,83.9,19.0,29.52,West,271,3.0,18.0,9,0.00,,,0.00,weatherlink.com 1.10,2013-05-21 01:22:00,
2013-05-20 19:37:00,83.4,16.0,29.53,NW,314,7.0,18.0,8,0.00,,,0.00,weatherlink.com 1.10,2013-05-21 01:37:00,
2013-05-20 19:52:00,82.5,18.0,29.53,NW,306,3.0,16.0,9,0.00,,,0.00,weatherlink.com 1.10,2013-05-21 01:52:00,
2013-05-20 20:07:00,81.2,20.0,29.53,WNW,291,5.0,12.0,10,0.00,,,0.00,weatherlink.com 1.10,2013-05-21 02:07:00,
2013-05-20 20:22:00,80.4,16.0,29.54,WNW,293,5.0,9.0,9,0.00,,,0.00,weatherlink.com 1.10,2013-05-21 02:22:00,
2013-05-20 20:37:00,80.1,16.0,29.55,WNW,298,6.0,14.0,9,0.00,,,0.00,weatherlink.com 1.10,2013-05-21 02:37:00,
2013-05-20 20:52:00,79.1,15.0,29.55,WNW,297,4.0,8.0,9,0.00,,,0.00,weatherlink.com 1.10,2013-05-21 02:52:00,
2013-05-20 21:07:00,78.1,19.0,29.56,WNW,302,2.0,7.0,11,0.00,,,0.00,weatherlink.com 1.10,2013-05-21 03:07:00,
2013-05-20 21:22:00,77.7,19.0,29.57,NW,315,5.0,12.0,11,0.00,,,0.00,weatherlink.com 1.10,2013-05-21 03:22:00,
2013-05-20 21:37:00,77.3,21.0,29.59,WNW,303,7.0,17.0,12,0.00,,,0.00,weatherlink.com 1.10,2013-05-21 03:37:00,
2013-05-20 21:52:00,76.8,20.0,29.59,NW,318,6.0,13.0,12,0.00,,,0.00,weatherlink.com 1.10,2013-05-21 03:52:00,
2013-05-20 22:07:00,76.0,20.0,29.60,NW,312,9.0,15.0,12,0.00,,,0.00,weatherlink.com 1.10,2013-05-21 04:07:00,
2013-05-20 22:22:00,75.2,21.0,29.61,NW,304,6.0,16.0,13,0.00,,,0.00,weatherlink.com 1.10,2013-05-21 04:22:00,
2013-05-20 22:37:00,74.4,20.0,29.61,NW,325,6.0,11.0,13,0.00,,,0.00,weatherlink.com 1.10,2013-05-21 04:37:00,
2013-05-20 22:52:00,73.4,21.0,29.61,NNW,330,1.0,9.0,14,0.00,,,0.00,weatherlink.com 1.10,2013-05-21 04:52:00,
2013-05-20 23:07:00,72.1,22.0,29.62,North,352,4.0,7.0,15,0.00,,,0.00,weatherlink.com 1.10,2013-05-21 05:07:00,
2013-05-20 23:22:00,70.8,22.0,29.63,NNW,336,0.0,4.0,16,0.00,,,0.00,weatherlink.com 1.10,2013-05-21 05:22:00,
2013-05-20 23:37:00,69.9,22.0,29.64,NNE,14,0.0,3.0,16,0.00,,,0.00,weatherlink.com 1.10,2013-05-21 05:37:00,
2013-05-20 23:52:00,69.4,21.0,29.64,North,350,7.0,8.0,16,0.00,,,0.00,weatherlink.com 1.10,2013-05-21 05:52:00,